Location: Grand Moustoir
(47.8355°N, 3.3120°W)
Time: 16:29:51
(UTC+00:00)

Cosmos 1656 - Pass Details

Date: 20 January 2020
Orbit: 797 x 850 km, 71.1° (Epoch: 26 February)

Event Time Altitude Azimuth Distance (km) Brightness Sun altitude
Exits shadow 05:59:02 33° 298° (WNW) 1,321 4.2 -19.0°
Maximum altitude 05:59:30 34° 309° (NW) 1,308 4.2 -18.9°
Drops below altitude 10° 06:04:28 10° 14° (NNE) 2,405 6.1 -18.1°
Sets 06:07:09 0° 24° (NNE) 3,349 7.0 -17.6°
